Home   Weather   Thusis   Past weeks

Flag for Switzerland Past Weather in Thusis, Graubünden, Switzerland — Yesterday and Last 2 Weeks

Now
56 °F

Overcast.


Feels Like: 56 °F
Forecast: 44 / 58 °F
Wind: 3 mph from Southwest

Location: Chur

Current Time: Oct 1, 2016 at 9:10:00 AM

Latest Report: Oct 1, 2016 at 8:00 AM


Visibility: 13 mi

Pressure: 29.95 "Hg (27.49 "Hg at 718m altitude)

Humidity: 69%

Dew Point: 46 °F

Location of ThusisLocation

Past Weather in Thusis — Graph

°F

Thusis Temperature Yesterday

Maximum temperature yesterday: 73 °F (at 4:00 PM)
Minimum temperature yesterday: 48 °F (at 6:00 AM)
Average temperature yesterday: 60 °F

High & Low Weather Summary for the Past Weeks

 TemperatureHumidityPressure
High73 °F (Sep 30, 4:00 PM)99% (Sep 19, 3:00 AM)30.49 "Hg (Sep 19, 3:00 AM)
Low48 °F (Sep 30, 6:00 AM)38% (Sep 30, 4:00 PM)29.86 "Hg (Sep 18, 3:00 PM)
Average58 °F77%30.13 "Hg
* Reported Sep 16 7:00 AM — Oct 1 7:00 AM, Thusis, Weather by CustomWeather, © 2016

Note: Actual official high and low records may vary slightly from our data, if they occured in-between our weather recording intervals... More about our weather records

Advertising

Thusis Weather History for the Previous 24 Hours

Scroll right to see more
 ConditionsComfort  
Time TempWeatherWind HumidityBarometerVisibility
7:00 AM
Sat, Oct 1
55 °FCool.8 mph69%29.95 "HgN/A
6:00 AM56 °FCool.6 mph64%29.95 "HgN/A
5:00 AM57 °FCool.6 mph63%29.95 "HgN/A
4:00 AM57 °FCool.6 mph64%29.97 "HgN/A
3:00 AM55 °FCool.1 mph73%29.99 "HgN/A
2:00 AM57 °FPassing clouds.6 mph65%30.00 "Hg11 mi
1:00 AM56 °FCool.6 mph69%30.02 "HgN/A
12:00 AM57 °FCool.7 mph70%30.03 "HgN/A
11:00 PM
Fri, Sep 30
55 °FCool.3 mph79%30.05 "HgN/A
10:00 PM56 °FCool.1 mph76%30.05 "HgN/A
9:00 PM57 °FCool.No wind76%30.04 "HgN/A
8:00 PM60 °FPassing clouds.1 mph72%30.01 "Hg11 mi
7:00 PM65 °FMild.3 mph56%29.98 "HgN/A
6:00 PM69 °FMild.7 mph49%29.95 "HgN/A
5:00 PM72 °FPassing clouds.9 mph43%29.92 "Hg19 mi
4:00 PM73 °FMild.7 mph38%29.92 "HgN/A
3:00 PM72 °FMild.5 mph41%29.94 "HgN/A
2:00 PM72 °FSunny.5 mph41%29.98 "Hg19 mi
1:00 PM68 °FMild.2 mph45%30.02 "HgN/A
12:00 PM66 °FMild.2 mph48%30.05 "HgN/A
11:00 AM62 °FSunny.2 mph52%30.10 "Hg19 mi
10:00 AM57 °FCool.2 mph64%30.13 "HgN/A
Weather by CustomWeather, © 2016

See weather overviewHow to use our weather pages